Regional Weather Roundup
Issued by NWS

Home | Current Version | Previous Version | Text Only | Print | Product List | Glossary Off
Versions: 1 2 3 4 5 6 7 8 9 10 11 12 13 14 15 16 17 18 19 20 21 22 23 24 25 26 27 28 29 30 31 32 33 34 35 36 37 38 39 40 41 42 43 44 45 46 47 48 49 50

000
ASUS43 KLOT 201606
RWRIL

ILLINOIS REGIONAL WEATHER ROUNDUP
NATIONAL WEATHER SERVICE CHICAGO/ROMEOVILLE IL
1100 AM CDT SAT SEP 20 2014

NOTE: "FAIR" INDICATES FEW OR NO CLOUDS BELOW 12,000 FEET WITH NO
SIGNIFICANT WEATHER AND/OR OBSTRUCTIONS TO VISIBILITY.

* THESE STATIONS ARE NOT UNDER NWS QUALITY CONTROL. THEY ALSO MAY NOT
  REPORT WEATHER SUCH AS PRECIPITATION OR FOG.

ILZ001-002-007-009-015-016-024-201700-
NORTHWEST ILLINOIS

CITY           SKY/WX    TMP DP  RH WIND       PRES   REMARKS
MOLINE         CLOUDY    71  64  78 SW13      29.87R
STERLING*      CLOUDY    73  64  73 W10G16    29.87S
SAVANNA*       PTSUNNY   73  64  75 S7        29.87R
$$

ILZ003-004-008-010-011-017-018-201700-
NORTH CENTRAL ILLINOIS

CITY           SKY/WX    TMP DP  RH WIND       PRES   REMARKS
ROCKFORD       PTSUNNY   73  62  68 SW12      29.86F
FREEPORT*      PTSUNNY   73  68  84 SW13      29.88R
ROCHELLE*      PTSUNNY   72  63  72 S10G16    29.86F
DE KALB*       PTSUNNY   71  63  77 SW14      29.87F
PERU*          PTSUNNY   73  64  75 SW14G20   29.88R
$$

ILZ005-006-012>014-019>023-201700-
NORTHEAST ILLINOIS

CITY           SKY/WX    TMP DP  RH WIND       PRES   REMARKS
CHICAGO-OHARE  PTSUNNY   72  62  71 SW13      29.85F
CHICAGO-MIDWAY PTSUNNY   74  64  71 SW18G26   29.86F
AURORA         MOSUNNY   74  63  68 SW13      29.87S
LANSING*       PTSUNNY   73  63  71 SW21G26   29.88F
JOLIET*        MOSUNNY   73  62  67 SW10G17   29.88F
WAUKEGAN       PTSUNNY   72  61  68 SW14G23   29.82F
DUPAGE AIRPORT MOSUNNY   74  63  68 SW10      29.86S
KANKAKEE*      PTSUNNY   76  65  70 SW21      29.91F
WHEELING       PTSUNNY   73  62  68 SW12G20   29.87R
MORRIS*        MOSUNNY   76  65  69 SW14      29.88R
ROMEOVILLE*    MOSUNNY   73  62  68 SW13G21   29.88R
NORTHERLY ISL    N/A     72  60  66 SW14        N/A
$$

LMZ740>746-201700-
SOUTHERN LAKE MICHIGAN

STATION/POSITION SKY/WX   TEMP    WIND        PRES    VSBY  WAVE
                          AIR SEA DIR/SP/G                  HT/PER
                          (F)     (DEG/KT/KT) (MB)    (MI)  (FT/S)
SOUTHERN BUOY              64 63  220/ 14/ 17 1010.1S         5/ 6
WAUKEGAN HARBOR            69     240/ 15/ 18   N/A
HARRISON CRIB              69     210/ 24/ 28   N/A
BURNHAM HARBOR             72     190/ 11/ 15   N/A
CALUMET HARBOR             71     200/ 12/ 17 1010.1R
MICHIGAN CITY              71     180/ 18/ 25   N/A
MICHIGAN CITY 6N           69 65  200/ 16/ 21   N/A           4/ 4
ST. JOSEPH                 69 65  170/ 17/ 23   N/A           4/ 5
$$

ILZ025>027-034>036-040-047-049-050-058-095>099-201700-
WEST-CENTRAL ILLINOIS

CITY           SKY/WX    TMP DP  RH WIND       PRES   REMARKS
QUINCY         PTSUNNY   74  66  76 SW16G23   29.95F
GALESBURG*     CLOUDY    72  67  85 S17       29.87F
MACOMB*        CLOUDY    73  66  80 S13G18    29.91F
JACKSONVILLE*  MOSUNNY   80  69  67 SW16G22   29.97F HX  83
PITTSFIELD*    MOSUNNY   76  67  73 SW12G18   29.99F
$$

ILZ028>032-037-038-041>044-048-051>054-059>061-201700-
CENTRAL ILLINOIS

CITY           SKY/WX    TMP DP  RH WIND       PRES   REMARKS
PONTIAC        PTSUNNY   75  66  73 S18G25    29.90F
DECATUR        PTSUNNY   76  65  68 S17       29.98F
PEORIA         CLOUDY    72  64  76 S16       29.90F
LACON*         CLOUDY    69  63  81 SW13G18   29.88S
LINCOLN*       PTSUNNY   78  66  66 SW8       29.92F HX  80
SPRINGFIELD    MOSUNNY   78  68  71 SW10G17   29.97F HX  80
TAYLORVILLE    MOSUNNY   75  64  69 CALM      30.00F
$$

ILZ033-039-045-046-055>057-062-063-201700-
EAST-CENTRAL ILLINOIS

CITY           SKY/WX    TMP DP  RH WIND       PRES   REMARKS
CHAMPAIGN      PTSUNNY   76  64  66 SW16      29.99F
DANVILLE*      CLOUDY    73  62  66 SW14      29.96F
RANTOUL*       CLOUDY    77  62  60 S13G20    29.97F
MATTOON        PTSUNNY   73  64  73 SW10      30.03F
PARIS*         CLOUDY    75  63  66 SW8G16    30.04F
$$

ILZ079-100>102-201700-
SOUTHWEST ILLINOIS

CITY           SKY/WX    TMP DP  RH WIND       PRES   REMARKS
ALTON          MOSUNNY   77  68  73 SW14      30.03F
BELLEVILLE     MOSUNNY   80  69  70 VRB3      30.03F HX  82
CAHOKIA*       MOSUNNY   79  67  66 VRB6      30.03F HX  81
SPARTA*        CLOUDY    77  67  72 SW8       30.06F
$$

ILZ064>066-069>071-074>076-080>082-084>086-088>090-092>094-201700-
SOUTH-CENTRAL ILLINOIS

CITY           SKY/WX    TMP DP  RH WIND       PRES   REMARKS
CARBONDALE     CLOUDY    79  68  69 SW10      30.07S HX  81
CAIRO*         SUNNY     80  71  73 SW6       30.08F HX  84
EFFINGHAM*     PTSUNNY   76  63  65 SW9       30.04F
MARION         MOSUNNY   81  70  69 SW12      30.08S HX  84
MT. VERNON     CLOUDY    77  66  69 SW12      30.07F
CENTRALIA*     MOSUNNY   77  66  69 SW10      30.05S
SALEM*         PTSUNNY   77  69  76 SW9       30.06S
METROPOLIS*    SUNNY     81  69  66 S7        30.07F HX  84
$$

ILZ067-068-072-073-078-083-087-091-201700-
SOUTHEAST ILLINOIS

CITY           SKY/WX    TMP DP  RH WIND       PRES   REMARKS
LAWRENCEVILLE  MOSUNNY   80  66  62 SW14      30.06F HX  82
FLORA*         MOSUNNY   78  66  67 SW14      30.06S
FAIRFIELD*     MOSUNNY  N/A N/A N/A SW8       30.06S
HARRISBURG*    MOSUNNY   80  68  68 SW9       30.07F HX  82
ROBINSON*      MOSUNNY   78  67  67 SW10      30.06F HX  80
CARMI*         MOSUNNY   82  70  65 SW12G17   30.06F HX  86
$$

ABBREVIATIONS USED IN REMARKS
   TC - TEMPERATURE IN CELSIUS
  WCI - WIND CHILL INDEX
   HX - HEAT INDEX
  VSB - VISIBILITY
$$




USA.gov is the U.S. government's official web portal to all federal, state and local government web resources and services.